User: anonymous
Location: Melbourne
(37.8170°S, 144.9670°E)
Time: 07:24:25
(UTC+10:00)
Language:

Cosmos 1656 Rocket - Orbit

View from above orbital plane
View from above orbital plane
View from above satellite
View from above satellite

Ground track
Ground track

The orbit data is extracted from the following two-line orbital elements,

1 15772U 85042D   14106.11820332 -.00000106  00000-0 -27003-4 0  3521
2 15772 071.1090 258.9174 0034341 040.4255 080.0396 14.21002027496928
Epoch (UTC): 16 April 2014 02:50:12
Eccentricity: 0.0034341
inclination: 71.1090°
perigee height: 797 km
apogee height: 846 km
right ascension of ascending node: 258.9174°
argument of perigee: 40.4255°
revolutions per day: 14.21002027
mean anomaly at epoch: 80.0396°
orbit number at epoch: 49692

The dashed part of the orbit path shows where the satellite is in the earth's shadow,  

DLR